"Pseudo-MPEC" for C0WDTN2

Created 2019 Sep 14 10:07:03 UT using Find_Orb

Click here for an explanation of pseudo-MPECs

 
 Astrometry: 
     C0WDTN2  C2019 09 04.48044 04 57 19.59 +05 38 39.7    ~94CM 20.3 GVNEOCPG96
     C0WDTN2  C2019 09 04.48560 04 57 20.70 +05 38 44.5    ~94CM 20.0 GVNEOCPG96
     C0WDTN2  C2019 09 04.49077 04 57 21.80 +05 38 49.5    ~94CM 20.1 GVNEOCPG96
     C0WDTN2  C2019 09 04.50054 04 57 23.92 +05 38 58.9    ~94CM 20.3 GVNEOCPG96
     C0WDTN2 KC2019 09 05j!aGa:#WIi88n[qP*3AD]cY7oAF0_Ny**`QETIC;kPgAZX87OO2uL01
     C0WDTN2 KC2019 09 059L#8V-xaRRo/l$r^T_Yh:PGR08'9%VRQYjaAhHMt=\P/:HGn.'7HL01
     C0WDTN2 KC2019 09 05W8TgP5UkX`$GEDoMAstrometryf/oPJ=wrK$/M5!'VRp6aaHH@JIL01
     C0WDTN2 KC2019 09 05ens83_\iygx%Eb,5=hko^(1P3@U\_IUR6oTr^4L%fredacted;Q%L01
     C0WDTN2 KC2019 09 05(7:F%_odgdr9^MPCP+ugT)9mqer^pQf.k2gQ(Qr.oj-qRQH7ild(L01
     C0WDTN2 KC2019 09 05_[H1?rc`TrH_TSX=#?0tK;Bbv1.`mmu;YohBUHP'p6\JHyMJr]DwH21
     C0WDTN2 KC2019 09 05Sf_OQn5E;d:tY\p4+G!]RK++R/WjTTCt9rLaaKWK?Q+Hs-Ii.`A4H21
     C0WDTN2 KC2019 09 05E@T]0.7-)+%UF@Z#Fy/+!1$bZnK@i_epY?Sj(Ew1PW@vQTwclickH21
     C0WDTN2 KC2019 09 05Sc(/Naq./B(R[G;@V_HU6Y_GS5ySiPa,3pZNAB]dJ5yq8nlHS:WDH36
     C0WDTN2 KC2019 09 05Nk'QD5AuvMbFb6g*M+hereU_.Sr0agg+;)PB5u10Ja]2-yO*OZ9kH36
     C0WDTN2 KC2019 09 05?sTMld43RsN5IJJD\ZnwrZ+q\4Uenn1hhe;4O)G[uqKyup5V3(yrH36
     C0WDTN2  C2019 09 05.49064 05 01 02.62 +05 55 04.5    ~95CM 19.9 GVNEOCPI52
     C0WDTN2  C2019 09 05.49278 05 01 03.12 +05 55 06.7    ~95CM 20.5 GVNEOCPI52
     C0WDTN2  C2019 09 05.49486 05 01 03.62 +05 55 09.0    ~95CM 20.2 GVNEOCPI52
     C0WDTN2  C2019 09 05.49562 05 01 03.71 +05 55 09.5    ~95CM 20.5 GVNEOCPI52
     C0WDTN2 KC2019 09 06y5,/UT#fBkQ7YZ@vUgHUbrDjWFCO35chjfforT22_$ksxL5u'w6eH21
     C0WDTN2 KC2019 09 06I[]ml^7v8J1!l!g4S_lEXjqHeR$CC?$'3J?JFWNXX@Yy@GSY9Rk*H21
     C0WDTN2 KC2019 09 06#mI/rfR;explanation+Vv[;B'LJ_*D?^df7wCCdF63UbS.X9TWyH21
     C0WDTN2 KC2019 09 08.10964905 11 16.65 +06 40 12.0    ~983M 19.9 GVNEOCPJ95
     C0WDTN2 KC2019 09 08.11382405 11 17.68 +06 40 15.8    ~983M 19.8 GVNEOCPJ95
     C0WDTN2 KC2019 09 08.11805605 11 18.74 +06 40 20.8    ~983M 19.4 GVNEOCPJ95
     C0WDTN2 KC2019 09 11JT'v$@[I_?g0?`SbJSx7.;kps*iM;BQI#((Dc+)(rclkIESMx,e`H36
     C0WDTN2 KC2019 09 11G01tn!cBS3F[oDx'LkLnqKBI1ac2Kt,sN.\KaIKvotvTkgc6Q42TH36
     C0WDTN2 KC2019 09 11M=2x8?q@M-k4Wdu1^n.89OrV?IDQ#D$tWV2vM-I[x7l;!AL_i4Q(H36
     C0WDTN2 BC2019 09 14.11235205 38 44.88 +08 40 08.4    ~9E3q 19.1 GVNEOCPJ95
     C0WDTN2 KC2019 09 14.12224805 38 47.86 +08 40 21.7    ~9E3q 19.3 GVNEOCPJ95

Station data:
(G96) Mt. Lemmon Survey  (N32.442754 W110.788720)  US/Arizona.  Observers T.
   A. Pruyne, B. M. Africano, E. J. Christensen, G. A. Farneth, D. C. Fuls,
   A. R. Gibbs, A. D. Grauer, H. Groeller, J. A. Johnson, R. A. Kowalski, S.
   M. Larson, G. J. Leonard, D. Rankin, R. L. Seaman, F. C. Shelly. 1.5-m
   reflector + 10K CCD.
(H21) Astronomical Research Observatory, Westfield  (N39.483057 W87.968270)
   US/Illinois. 0.76-m f/3.0 astrograph + CCD.
(H36) Sandlot Observatory, Scranton  (N38.797693 W95.706400)  US/Kansas.
   Observer G. Hug. 0.56-m reflector + CCD.
(I52) Steward Observatory, Mt. Lemmon Station  (N32.442547 W110.788920)
   US/Arizona.  Observers T. A. Pruyne, B. M. Africano, E. J. Christensen, G.
   A. Farneth, D. C. Fuls, A. R. Gibbs, A. D. Grauer, H. Groeller, J. A.
   Johnson, R. A. Kowalski, S. M. Larson, G. J. Leonard, D. Rankin, R. L.
   Seaman, F. C. Shelly. 1.0-m reflector + CCD.
(J95) Great Shefford  (N51.474969 W1.447003)  UK.  Observer P. Birtwhistle.
   0.40-m f/6.0 Schmidt-Cassegrain + CCD.
(L01) Višnjan Observatory, Tičan  (N45.290900 E13.749300)  Croatia.
   Observers K. Korlević, E. Pettarin. Measurer E. Pettarin. 1.0-m f/2.9
   reflector + CCD.

Orbital elements:  C0WDTN2
   Perihelion 2019 Nov 12.166066 +/- 0.323 TT =  3:59:08 (JD 2458799.666066)
Epoch 2019 Sep 14.0 TT = JDT 2458740.5   Earth MOID: 0.0492   Ve: 0.0988
M 339.29021815 +/- 2.4              Me: 0.0712                AutoNEOCP
n   0.35002803 +/- 0.0403           Peri.  106.71515 +/- 1.3
a   1.99404136 +/- 0.137            Node    41.55180 +/- 0.43
e   0.8099354 +/- 0.0118            Incl.   34.75214 +/- 0.14
P   2.82                   H 18.1   G  0.15   U 10.6  
q 0.37899658 +/- 0.00498    Q 3.60908613 +/- 0.306
From 30 observations 2019 Sept. 4-14; mean residual 0".38
Residuals in arcseconds: 
190904 G96  .56-  .30+    190905 H21  .46-  .30+    190906 H21  .50+  .58+    
190904 G96  .50-  .13+    190905 H21  .69-  .18+    190906 H21  .40+  .67+    
190904 G96  .62-  .16+    190905 H36  .02-  .27+    190908 J95  .21-  .01-    
190904 G96  .24-  .16+    190905 H36  .12-  .57+    190908 J95  .01-  .73-    
190905 L01  .27-  .08+    190905 H36  .94+  .75+    190908 J95  .44+  .32-    
190905 L01  .16-  .15+    190905 I52  .13-  .03+    190911 H36  .01+  .24+    
190905 L01  .11-  .14+    190905 I52  .26+  .11+    190911 H36  .48-  .01-    
190905 L01  .17+  .05+    190905 I52  .85+  .34+    190911 H36  .02-  .08-    
190905 L01  .21+  .22-    190905 I52  .31-  .09+    190914 J95  .46+  .06+    
190905 H21  .29-  .28+    190906 H21  .52+  .45+    190914 J95  .31-  .18+    

Ephemerides (geocentric):
Date (UTC) HH   RA              Dec         delta   r     elong  mag " sig PA
---- -- -- --  -------------   -----------  ------ ------ -----  --- ---- ---
2019 09 14 10  05 40 18.845   +08 47 02.17  .75535 1.2172  86.2 19.9 .305  71
2019 09 14 11  05 40 31.862   +08 47 58.03  .75462 1.2167  86.2 19.9 .322  72
2019 09 14 12  05 40 44.901   +08 48 53.97  .75388 1.2161  86.2 19.9 .340  73
2019 09 14 13  05 40 57.962   +08 49 49.99  .75314 1.2155  86.1 19.9 .358  74
2019 09 14 14  05 41 11.047   +08 50 46.08  .75240 1.2149  86.1 19.9 .377  75
2019 09 14 15  05 41 24.154   +08 51 42.25  .75166 1.2143  86.1 19.9 .396  76
2019 09 14 16  05 41 37.284   +08 52 38.50  .75093 1.2137  86.1 19.9 .415  76
2019 09 14 17  05 41 50.437   +08 53 34.83  .75019 1.2131  86.1 19.9 .435  77
2019 09 14 18  05 42 03.613   +08 54 31.24  .74946 1.2125  86.1 19.9 .456  77
2019 09 14 19  05 42 16.812   +08 55 27.73  .74872 1.2119  86.1 19.9 .477  78
2019 09 14 20  05 42 30.034   +08 56 24.30  .74799 1.2113  86.0 19.9 .498  78
2019 09 14 21  05 42 43.279   +08 57 20.94  .74725 1.2107  86.0 19.9 .520  79
2019 09 14 22  05 42 56.547   +08 58 17.67  .74652 1.2101  86.0 19.9 .542  79
2019 09 14 23  05 43 09.839   +08 59 14.47  .74579 1.2096  86.0 19.9 .565  80
2019 09 15 00  05 43 23.154   +09 00 11.35  .74505 1.2090  86.0 19.9 .588  80
2019 09 15 01  05 43 36.492   +09 01 08.31  .74432 1.2084  86.0 19.9 .612  80
2019 09 15 02  05 43 49.854   +09 02 05.36  .74359 1.2078  85.9 19.9 .636  81
2019 09 15 03  05 44 03.239   +09 03 02.48  .74286 1.2072  85.9 19.9 .661  81
2019 09 15 04  05 44 16.648   +09 03 59.68  .74213 1.2066  85.9 19.9 .686  81
2019 09 15 05  05 44 30.081   +09 04 56.95  .74140 1.2060  85.9 19.9 .711  82
2019 09 15 06  05 44 43.537   +09 05 54.31  .74067 1.2054  85.9 19.9 .737  82
2019 09 15 07  05 44 57.017   +09 06 51.75  .73994 1.2048  85.9 19.9 .764  82
2019 09 15 08  05 45 10.521   +09 07 49.27  .73921 1.2042  85.8 19.9 .791  82
2019 09 15 09  05 45 24.049   +09 08 46.87  .73848 1.2036  85.8 19.9 .818  83
2019 09 15 10  05 45 37.601   +09 09 44.54  .73776 1.2030  85.8 19.9 .846  83
2019 09 15 11  05 45 51.177   +09 10 42.30  .73703 1.2024  85.8 19.9 .875  83
2019 09 15 12  05 46 04.777   +09 11 40.13  .73630 1.2018  85.8 19.9 .904  83
2019 09 15 13  05 46 18.401   +09 12 38.05  .73558 1.2012  85.8 19.9 .933  83
2019 09 15 14  05 46 32.050   +09 13 36.05  .73485 1.2006  85.7 19.9 .963  83
2019 09 15 15  05 46 45.722   +09 14 34.12  .73413 1.2001  85.7 19.9 0.99  84
2019 09 15 16  05 46 59.419   +09 15 32.28  .73340 1.1995  85.7 19.9 1.02  84
2019 09 15 17  05 47 13.141   +09 16 30.51  .73268 1.1989  85.7 19.9 1.06  84
2019 09 15 18  05 47 26.887   +09 17 28.83  .73195 1.1983  85.7 19.9 1.09  84
2019 09 15 19  05 47 40.657   +09 18 27.22  .73123 1.1977  85.6 19.9 1.12  84
2019 09 15 20  05 47 54.453   +09 19 25.70  .73051 1.1971  85.6 19.9 1.15  84
2019 09 15 21  05 48 08.273   +09 20 24.25  .72979 1.1965  85.6 19.9 1.19  84
2019 09 15 22  05 48 22.117   +09 21 22.89  .72907 1.1959  85.6 19.9 1.22  84
2019 09 15 23  05 48 35.987   +09 22 21.60  .72835 1.1953  85.6 19.9 1.26  85
2019 09 16 00  05 48 49.881   +09 23 20.40  .72763 1.1947  85.6 19.9 1.29  85
2019 09 16 01  05 49 03.800   +09 24 19.27  .72691 1.1941  85.5 19.9 1.33  85
2019 09 16 02  05 49 17.745   +09 25 18.23  .72619 1.1935  85.5 19.9 1.36  85
2019 09 16 03  05 49 31.714   +09 26 17.27  .72547 1.1929  85.5 19.9 1.40  85
2019 09 16 04  05 49 45.709   +09 27 16.38  .72475 1.1923  85.5 19.9 1.44  85
2019 09 16 05  05 49 59.728   +09 28 15.58  .72404 1.1917  85.5 19.8 1.48  85
2019 09 16 06  05 50 13.773   +09 29 14.86  .72332 1.1911  85.4 19.8 1.52  85
2019 09 16 07  05 50 27.844   +09 30 14.21  .72260 1.1905  85.4 19.8 1.55  85
2019 09 16 08  05 50 41.940   +09 31 13.65  .72189 1.1899  85.4 19.8 1.59  85
2019 09 16 09  05 50 56.061   +09 32 13.17  .72117 1.1893  85.4 19.8 1.64  85